Location: Pamplona-Iru�ea
(42.8170°N, 1.6330°W)
Time: 00:26:31
(UTC+02:00)

ISS - Visible Passes

Search period start: 23 July 2018 00:00
Search period end: 02 August 2018 00:00
Orbit: 402 x 408 km, 51.6° (Epoch: 22 July)

Date Brightness Start Highest point End Pass type
(mag) Time Alt. Az. Time Alt. Az. Time Alt. Az.
23 Jul -0.8 01:14:37 10° NW 01:16:55 17° N 01:19:13 10° NE visible
23 Jul -1.4 02:51:21 10° NW 02:53:22 23° N 02:53:22 23° N visible
23 Jul -2.7 22:44:17 10° WSW 22:47:27 46° NNW 22:50:39 10° NE visible
24 Jul -0.9 00:22:07 10° NW 00:24:32 18° N 00:26:56 10° NE visible
24 Jul -1.2 01:59:16 10° NW 02:01:46 21° N 02:01:46 21° N visible
24 Jul -1.2 23:29:32 10° WNW 23:32:09 22° NNW 23:34:47 10° NE visible
25 Jul -1.0 01:07:06 10° NW 01:09:29 18° N 01:10:47 15° NE visible
25 Jul -1.6 22:36:56 10° W 22:39:48 27° NNW 22:42:42 10° NE visible
26 Jul -0.9 00:14:47 10° NW 00:17:04 17° N 00:19:21 10° NE visible
26 Jul -1.1 01:51:23 10° NW 01:52:38 19° NNW 01:52:38 19° NNW visible
26 Jul -1.0 23:22:18 10° NW 23:24:38 18° N 23:26:59 10° NE visible
27 Jul -1.5 00:59:17 10° NW 01:01:57 22° NNE 01:01:57 22° NNE visible
27 Jul -1.2 22:29:41 10° WNW 22:32:13 20° NNW 22:34:45 10° NE visible
28 Jul -1.2 00:07:07 10° NW 00:09:33 19° N 00:11:20 13° NE visible
28 Jul -0.8 01:43:22 10° NW 01:43:57 14° NW 01:43:57 14° NW visible
28 Jul -1.1 23:14:48 10° NW 23:17:06 17° N 23:19:24 10° NE visible
29 Jul -1.7 00:51:16 10° NW 00:53:21 27° NNW 00:53:21 27° NNW visible
29 Jul -1.1 22:22:20 10° NW 22:24:38 17° N 22:26:56 10° NE visible
29 Jul -1.8 23:59:10 10° NW 00:01:56 24° NNE 00:02:47 22° NE visible
30 Jul -0.5 01:35:25 10° WNW 01:35:25 10° WNW 01:35:25 10° WNW visible
30 Jul -1.4 23:06:59 10° NW 23:09:30 20° N 23:12:01 10° ENE visible
31 Jul -1.7 00:43:12 10° NW 00:44:52 26° NW 00:44:52 26° NW visible
31 Jul -1.3 22:14:42 10° NW 22:17:01 18° N 22:19:21 10° NE visible
31 Jul -2.7 23:51:04 10° NW 23:54:11 37° NNE 23:54:20 37° NNE visible
01 Aug -2.0 22:58:56 10° NW 23:01:46 27° NNE 23:03:50 15° ENE visible
